Flag for U.S.A. Weather past 2 weeks in St. George, Utah, U.S.A.

Now
86 °F

Sunny.


Feels Like: 84 °F
Forecast: 72 / 95 °F
Wind: 13 mph from South

Location: Saint George

Current Time: Jul 6, 2015 at 7:03:10 PM

Latest Report: Jul 6, 2015 at 6:35 PM


Visibility: 10 mi

Pressure: 30.00 "Hg (27.28 "Hg at 842m altitude)

Humidity: 31%

Dew point: 52 °F

Location of St. GeorgeLocation

Historic Weather in St. George — Graph

°F

St. George temperature yesterday

Maximum temperature yesterday: 100 °F (at 3:15 PM)
Minimum temperature yesterday: 75 °F (at 5:15 AM)
Average temperature yesterday: 87 °F

Past Weeks' High & Low Weather Summary

 TemperatureHumidityPressure
High109 °F (Jun 26, 3:35 PM)58% (Jul 2, 1:55 AM)30.10 "Hg (Jul 2, 1:55 AM)
Low72 °F (Jun 25, 6:35 AM)9% (Jun 21, 5:15 PM)29.81 "Hg (Jul 1, 5:55 PM)
Average91 °F20%29.95 "Hg
* Reported Jun 21 5:15 PM — Jul 6 5:55 PM, St. George, Weather by CustomWeather, © 2015

Note: Actual official high and low records may vary slightly from our data, if they occured in-between our weather recording intervals... More about our weather records

Advertising

St. George weather history for previous 24 hours

 ConditionsComfort  
Time TempWeatherWind HumidityBarometerVisibility
5:55 PM
Mon, Jul 6
88 °FScattered clouds.15 mph27%30.01 "Hg10 mi
5:35 PM88 °FPassing clouds.16 mph27%30.01 "Hg10 mi
5:15 PM90 °FScattered clouds.12 mph27%30.01 "Hg10 mi
4:55 PM91 °FSunny.13 mph26%30.01 "Hg10 mi
4:35 PM91 °FSunny.5 mph26%30.02 "Hg10 mi
3:55 PM90 °FSunny.7 mph27%30.03 "Hg10 mi
3:35 PM90 °FSunny.5 mph27%30.04 "Hg10 mi
3:15 PM88 °FSunny.3 mph29%30.04 "Hg10 mi
2:55 PM86 °FSunny.9 mph31%30.05 "Hg10 mi
2:35 PM84 °FSunny.12 mph33%30.06 "Hg10 mi
2:15 PM84 °FSunny.15 mph33%30.06 "Hg10 mi
1:55 PM88 °FPassing clouds.17 mph29%30.07 "Hg10 mi
1:35 PM88 °FPartly sunny.12 mph31%30.07 "Hg10 mi
1:15 PM88 °FSunny.13 mph31%30.07 "Hg10 mi
12:55 PM88 °FSunny.7 mph31%30.07 "Hg10 mi
12:35 PM88 °FSunny.9 mph31%30.08 "Hg10 mi
12:15 PM88 °FSunny.9 mph31%30.09 "Hg10 mi
11:55 AM88 °FSunny.15 mph31%30.09 "Hg10 mi
11:35 AM86 °FSunny.6 mph33%30.10 "Hg10 mi
11:15 AM84 °FSunny.6 mph33%30.10 "Hg10 mi
10:55 AM84 °FSunny.5 mph33%30.10 "Hg10 mi
10:35 AM84 °FSunny.5 mph33%30.10 "Hg10 mi
10:15 AM84 °FSunny.6 mph33%30.10 "Hg10 mi
9:55 AM82 °FSunny.No wind35%30.10 "Hg10 mi
9:35 AM82 °FScattered clouds.5 mph35%30.10 "Hg10 mi
9:15 AM81 °FPartly sunny.7 mph37%30.10 "Hg10 mi
8:55 AM81 °FScattered clouds.7 mph37%30.09 "Hg10 mi
8:35 AM81 °FPartly sunny.7 mph37%30.09 "Hg10 mi
8:15 AM79 °FPassing clouds.5 mph39%30.08 "Hg10 mi
7:55 AM79 °FSunny.5 mph37%30.08 "Hg10 mi
7:35 AM79 °FSunny.5 mph37%30.08 "Hg10 mi
7:15 AM79 °FClear.5 mph39%30.07 "Hg10 mi
6:35 AM79 °FClear.6 mph39%30.06 "Hg10 mi
5:55 AM79 °FClear.9 mph39%30.03 "Hg10 mi
5:35 AM79 °FClear.9 mph39%30.03 "Hg10 mi
5:15 AM79 °FClear.7 mph39%30.03 "Hg10 mi
4:55 AM79 °FClear.10 mph39%30.02 "Hg10 mi
4:35 AM79 °FClear.12 mph39%30.01 "Hg10 mi
4:15 AM79 °FClear.10 mph37%30.01 "Hg10 mi
3:55 AM81 °FClear.10 mph34%30.01 "Hg10 mi
3:35 AM81 °FClear.8 mph32%30.01 "Hg10 mi
3:15 AM81 °FClear.6 mph34%30.02 "Hg10 mi
2:55 AM81 °FPassing clouds.8 mph34%30.02 "Hg10 mi
2:35 AM81 °FPassing clouds.8 mph34%30.02 "Hg10 mi
2:15 AM81 °FClear.12 mph34%30.02 "Hg10 mi
1:55 AM81 °FClear.12 mph34%30.01 "Hg10 mi
1:35 AM81 °FPassing clouds.12 mph37%30.01 "Hg10 mi
1:15 AM82 °FPassing clouds.3 mph30%30.01 "Hg10 mi
12:55 AM82 °FClear.3 mph30%30.01 "Hg10 mi
12:35 AM82 °FClear.10 mph30%30.00 "Hg10 mi
12:15 AM82 °FClear.8 mph30%30.00 "Hg10 mi
11:55 PM
Sun, Jul 5
82 °FClear.10 mph30%30.00 "Hg10 mi
11:35 PM82 °FClear.9 mph30%29.99 "Hg10 mi
11:15 PM82 °FClear.10 mph30%29.99 "Hg10 mi
10:55 PM82 °FClear.10 mph30%29.99 "Hg10 mi
10:35 PM82 °FClear.10 mph28%29.98 "Hg10 mi
10:15 PM84 °FClear.9 mph27%29.97 "Hg10 mi
9:35 PM86 °FSunny.9 mph25%29.95 "Hg10 mi
9:15 PM86 °FSunny.12 mph27%29.94 "Hg10 mi
8:55 PM88 °FSunny.15 mph24%29.93 "Hg10 mi
8:35 PM90 °FSunny.12 mph22%29.93 "Hg10 mi
8:15 PM91 °FSunny.7 mph21%29.93 "Hg10 mi
7:55 PM90 °FSunny.7 mph22%29.92 "Hg10 mi
7:35 PM90 °FSunny.14 mph22%29.92 "Hg10 mi
7:15 PM90 °FSunny.28 mph24%29.92 "Hg10 mi
Weather by CustomWeather, © 2015

See weather overviewHow to use our weather pages